| time (UTC) | temp C | wind direction | speed KPH | gust KPH | rain 1hr cm | rain 24hr cm | rain mn cm | humidity % | barometer mb |
| 20260505063043 | 14 | 170 | 1.6 | 4.8 | 0.00 | 0.00 | 0.00 | 63 | 1015.5 |
| 20260505061534 | 15 | 165 | 1.6 | 4.8 | 0.00 | 0.00 | 0.00 | 61 | 1015.5 |
| 20260505060029 | 15 | 160 | 1.6 | 4.8 | 0.00 | 0.00 | 0.00 | 59 | 1015.6 |
| 20260505054535 | 15 | 167 | 1.6 | 4.8 | 0.00 | 0.00 | 0.00 | 58 | 1015.6 |
| 20260505053026 | 15 | 174 | 0.0 | 3.2 | 0.00 | 0.00 | 0.00 | 56 | 1015.6 |
| 20260505051534 | 16 | 175 | 0.0 | 3.2 | 0.00 | 0.00 | 0.00 | 55 | 1015.6 |
| 20260505041524 | 16 | 158 | 1.6 | 3.2 | 0.00 | 0.00 | 0.00 | 54 | 1015.7 |
| 20260505040014 | 16 | 157 | 1.6 | 4.8 | 0.00 | 0.00 | 0.00 | 53 | 1015.7 |
| 20260505034513 | 16 | 158 | 1.6 | 6.4 | 0.00 | 0.00 | 0.00 | 53 | 1015.8 |
| 20260505033012 | 16 | 167 | 0.0 | 4.8 | 0.00 | 0.00 | 0.00 | 53 | 1016.0 |
| 20260505031523 | 16 | 198 | 0.0 | 3.2 | 0.00 | 0.00 | 0.00 | 56 | 1015.8 |
| 20260505030010 | 16 | 198 | 1.6 | 4.8 | 0.00 | 0.00 | 0.00 | 57 | 1015.9 |
| 20260505024510 | 15 | 217 | 0.0 | 3.2 | 0.00 | 0.00 | 0.00 | 61 | 1015.8 |
| 20260505023010 | 15 | 220 | 0.0 | 0.0 | 0.00 | 0.00 | 0.00 | 61 | 1015.7 |
| 20260505021508 | 15 | 220 | 0.0 | 0.0 | 0.00 | 0.00 | 0.00 | 58 | 1015.7 |
| 20260505020009 | 16 | 220 | 0.0 | 1.6 | 0.00 | 0.00 | 0.00 | 56 | 1015.6 |
| 20260505014514 | 16 | 220 | 0.0 | 1.6 | 0.00 | 0.00 | 0.00 | 56 | 1015.5 |
| 20260505013007 | 16 | 220 | 0.0 | 1.6 | 0.00 | 0.00 | 0.00 | 55 | 1015.3 |
| 20260505011509 | 16 | 220 | 0.0 | 0.0 | 0.00 | 0.00 | 0.00 | 55 | 1015.3 |
| 20260505010013 | 17 | 220 | 0.0 | 1.6 | 0.00 | 0.00 | 0.00 | 52 | 1015.1 |
| 20260505004507 | 17 | 220 | 0.0 | 1.6 | 0.00 | 0.00 | 0.00 | 49 | 1015.0 |
| 20260505003006 | 18 | 220 | 0.0 | 1.6 | 0.00 | 0.00 | 0.00 | 46 | 1014.7 |
| 20260505001505 | 19 | 220 | 0.0 | 1.6 | 0.00 | 0.00 | 0.00 | 44 | 1014.6 |
| 20260505000005 | 20 | 220 | 0.0 | 1.6 | 0.00 | 0.00 | 0.00 | 41 | 1014.6 |
| 20260504234505 | 21 | 180 | 0.0 | 3.2 | 0.00 | 0.00 | 0.00 | 36 | 1014.5 |
| 20260504233004 | 22 | 178 | 0.0 | 4.8 | 0.00 | 0.00 | 0.00 | 35 | 1014.4 |
| 20260504231503 | 23 | 136 | 1.6 | 6.4 | 0.00 | 0.00 | 0.00 | 34 | 1014.2 |
| 20260504230005 | 23 | 171 | 0.0 | 6.4 | 0.00 | 0.00 | 0.00 | 34 | 1014.2 |
| 20260504224508 | 23 | 200 | 1.6 | 11.3 | 0.00 | 0.00 | 0.00 | 33 | 1014.2 |
| 20260504223003 | 25 | 225 | 1.6 | 8.0 | 0.00 | 0.00 | 0.00 | 31 | 1014.2 |
| 20260504221501 | 26 | 159 | 1.6 | 8.0 | 0.00 | 0.00 | 0.00 | 31 | 1014.2 |
| 20260504220002 | 25 | 224 | 3.2 | 9.7 | 0.00 | 0.00 | 0.00 | 27 | 1014.2 |
| 20260504214600 | 26 | 148 | 1.6 | 8.0 | 0.00 | 0.00 | 0.00 | 28 | 1014.2 |
| 20260504213103 | 26 | 181 | 4.8 | 14.5 | 0.00 | 0.00 | 0.00 | 29 | 1014.2 |
| 20260504211601 | 26 | 232 | 3.2 | 12.9 | 0.00 | 0.00 | 0.00 | 30 | 1014.2 |
| 20260504204555 | 25 | 198 | 3.2 | 14.5 | 0.00 | 0.00 | 0.00 | 30 | 1014.4 |
| 20260504203051 | 26 | 267 | 3.2 | 6.4 | 0.00 | 0.00 | 0.00 | 31 | 1014.6 |
| 20260504201549 | 26 | 245 | 1.6 | 8.0 | 0.00 | 0.00 | 0.00 | 30 | 1014.8 |
| 20260504200053 | 26 | 186 | 1.6 | 6.4 | 0.00 | 0.00 | 0.00 | 32 | 1015.1 |
| 20260504194542 | 26 | 157 | 3.2 | 8.0 | 0.00 | 0.00 | 0.00 | 31 | 1015.3 |
| 20260504193043 | 25 | 179 | 3.2 | 9.7 | 0.00 | 0.00 | 0.00 | 32 | 1015.4 |
| 20260504191539 | 25 | 257 | 1.6 | 8.0 | 0.00 | 0.00 | 0.00 | 31 | 1015.5 |
| 20260504190037 | 25 | 216 | 3.2 | 11.3 | 0.00 | 0.00 | 0.00 | 31 | 1015.7 |
| 20260504184538 | 25 | 180 | 1.6 | 6.4 | 0.00 | 0.00 | 0.00 | 34 | 1015.9 |
| 20260504183036 | 25 | 200 | 4.8 | 11.3 | 0.00 | 0.00 | 0.00 | 34 | 1016.1 |
| 20260504181532 | 25 | 24 | 1.6 | 8.0 | 0.00 | 0.00 | 0.00 | 31 | 1016.3 |
| 20260504180029 | 23 | 250 | 3.2 | 9.7 | 0.00 | 0.00 | 0.00 | 35 | 1016.5 |
| 20260504174527 | 24 | 213 | 3.2 | 8.0 | 0.00 | 0.00 | 0.00 | 34 | 1016.5 |
| 20260504173025 | 23 | 360 | 3.2 | 8.0 | 0.00 | 0.00 | 0.00 | 35 | 1016.6 |
| 20260504171522 | 22 | 56 | 1.6 | 11.3 | 0.00 | 0.00 | 0.00 | 34 | 1017.0 |
| 20260504150103 | 18 | 350 | 1.6 | 6.4 | 0.00 | 0.00 | 0.00 | 55 | 1018.4 |
| 20260504081504 | 6 | 178 | 0.0 | 0.0 | 0.00 | 0.00 | 0.00 | 86 | 1017.7 |